| time (UTC) | temp C | wind direction | speed KPH | gust KPH | rain 1hr cm | rain 24hr cm | rain mn cm | humidity % | barometer mb |
| 20260505093032 | 16 | 234 | 4.8 | 9.7 | 0.00 | 0.00 | 0.00 | 72 | 1011.2 |
| 20260505092017 | 17 | 294 | 3.2 | 8.0 | 0.00 | 0.00 | 0.00 | 71 | 1011.2 |
| 20260505091027 | 17 | 292 | 1.6 | 11.3 | 0.00 | 0.00 | 0.00 | 71 | 1011.1 |
| 20260505090024 | 17 | 126 | 0.0 | 9.7 | 0.00 | 0.00 | 0.00 | 71 | 1011.1 |
| 20260505085052 | 17 | 252 | 3.2 | 9.7 | 0.00 | 0.00 | 0.00 | 71 | 1011.0 |
| 20260505084021 | 17 | 265 | 4.8 | 9.7 | 0.00 | 0.00 | 0.00 | 71 | 1011.1 |
| 20260505083031 | 17 | 196 | 0.0 | 9.7 | 0.00 | 0.00 | 0.00 | 71 | 1011.0 |
| 20260505082025 | 17 | 228 | 0.0 | 6.4 | 0.00 | 0.00 | 0.00 | 71 | 1010.9 |
| 20260505081032 | 17 | 263 | 0.0 | 9.7 | 0.00 | 0.00 | 0.00 | 71 | 1010.9 |
| 20260505080022 | 16 | 227 | 0.0 | 4.8 | 0.00 | 0.00 | 0.00 | 71 | 1010.9 |
| 20260505075015 | 16 | 209 | 0.0 | 4.8 | 0.00 | 0.00 | 0.00 | 71 | 1010.9 |
| 20260505074025 | 16 | 259 | 0.0 | 3.2 | 0.00 | 0.00 | 0.00 | 71 | 1010.9 |
| 20260505073054 | 16 | 239 | 1.6 | 4.8 | 0.00 | 0.00 | 0.00 | 70 | 1010.8 |
| 20260505072043 | 17 | 188 | 1.6 | 6.4 | 0.00 | 0.00 | 0.00 | 70 | 1010.7 |
| 20260505071029 | 17 | 217 | 3.2 | 6.4 | 0.00 | 0.00 | 0.00 | 70 | 1010.7 |
| 20260505070026 | 17 | 241 | 1.6 | 9.7 | 0.00 | 0.00 | 0.00 | 70 | 1010.7 |
| 20260505065032 | 17 | 142 | 3.2 | 6.4 | 0.00 | 0.00 | 0.00 | 70 | 1010.6 |
| 20260505064020 | 17 | 252 | 0.0 | 4.8 | 0.00 | 0.00 | 0.00 | 70 | 1010.5 |
| 20260505063051 | 17 | 246 | 0.0 | 8.0 | 0.00 | 0.00 | 0.00 | 69 | 1010.6 |
| 20260505062045 | 17 | 279 | 3.2 | 11.3 | 0.00 | 0.00 | 0.00 | 68 | 1010.6 |
| 20260505061051 | 17 | 291 | 1.6 | 9.7 | 0.00 | 0.00 | 0.00 | 68 | 1010.4 |
| 20260505060020 | 17 | 253 | 1.6 | 16.1 | 0.00 | 0.00 | 0.00 | 68 | 1010.4 |
| 20260505055027 | 17 | 149 | 4.8 | 16.1 | 0.00 | 0.00 | 0.00 | 68 | 1010.4 |
| 20260505054020 | 16 | 227 | 3.2 | 14.5 | 0.00 | 0.00 | 0.00 | 71 | 1010.4 |
| 20260505053028 | 13 | 211 | 3.2 | 6.4 | 0.00 | 0.00 | 0.00 | 76 | 1010.5 |
| 20260505052035 | 11 | 130 | 0.0 | 1.6 | 0.00 | 0.00 | 0.00 | 82 | 1010.4 |
| 20260505051041 | 11 | 87 | 0.0 | 1.6 | 0.00 | 0.00 | 0.00 | 81 | 1010.4 |
| 20260505041034 | 13 | 87 | 0.0 | 1.6 | 0.00 | 0.00 | 0.00 | 77 | 1010.5 |
| 20260505040025 | 13 | 87 | 0.0 | 1.6 | 0.00 | 0.00 | 0.00 | 75 | 1010.4 |
| 20260505035035 | 13 | 87 | 0.0 | 1.6 | 0.00 | 0.00 | 0.00 | 74 | 1010.4 |
| 20260505034025 | 14 | 88 | 0.0 | 0.0 | 0.00 | 0.00 | 0.00 | 73 | 1010.3 |
| 20260505033053 | 14 | 88 | 0.0 | 1.6 | 0.00 | 0.00 | 0.00 | 73 | 1010.3 |
| 20260505032040 | 14 | 88 | 1.6 | 3.2 | 0.00 | 0.00 | 0.00 | 72 | 1010.3 |
| 20260505031027 | 14 | 88 | 0.0 | 1.6 | 0.00 | 0.00 | 0.00 | 72 | 1010.3 |
| 20260505030019 | 14 | 87 | 0.0 | 1.6 | 0.00 | 0.00 | 0.00 | 73 | 1010.3 |
| 20260505025046 | 14 | 88 | 0.0 | 0.0 | 0.00 | 0.00 | 0.00 | 74 | 1010.3 |
| 20260505024015 | 14 | 88 | 0.0 | 4.8 | 0.00 | 0.00 | 0.00 | 72 | 1010.2 |
| 20260505023047 | 15 | 87 | 0.0 | 1.6 | 0.00 | 0.00 | 0.00 | 71 | 1010.4 |
| 20260505022031 | 15 | 87 | 0.0 | 3.2 | 0.00 | 0.00 | 0.00 | 71 | 1010.1 |
| 20260505021024 | 15 | 88 | 0.0 | 3.2 | 0.00 | 0.00 | 0.00 | 70 | 1010.1 |
| 20260505020030 | 15 | 87 | 0.0 | 1.6 | 0.00 | 0.00 | 0.00 | 70 | 1010.1 |
| 20260505015018 | 15 | 88 | 0.0 | 0.0 | 0.00 | 0.00 | 0.00 | 71 | 1010.0 |
| 20260505014025 | 15 | 88 | 0.0 | 0.0 | 0.00 | 0.00 | 0.00 | 69 | 1010.0 |
| 20260505013058 | 15 | 88 | 0.0 | 3.2 | 0.00 | 0.00 | 0.00 | 69 | 1009.9 |
| 20260505012021 | 16 | 88 | 0.0 | 3.2 | 0.00 | 0.00 | 0.00 | 67 | 1009.8 |
| 20260505011031 | 16 | 88 | 0.0 | 0.0 | 0.00 | 0.00 | 0.00 | 67 | 1009.6 |
| 20260505010019 | 17 | 88 | 0.0 | 0.0 | 0.00 | 0.00 | 0.00 | 66 | 1009.6 |
| 20260505005035 | 17 | 87 | 0.0 | 3.2 | 0.00 | 0.00 | 0.00 | 63 | 1009.6 |
| 20260505004029 | 17 | 5 | 0.0 | 3.2 | 0.00 | 0.00 | 0.00 | 62 | 1009.4 |
| 20260505003038 | 18 | 5 | 0.0 | 3.2 | 0.00 | 0.00 | 0.00 | 60 | 1009.6 |
| 20260505002024 | 18 | 309 | 0.0 | 1.6 | 0.00 | 0.00 | 0.00 | 58 | 1009.5 |
| 20260505001031 | 20 | 177 | 0.0 | 3.2 | 0.00 | 0.00 | 0.00 | 55 | 1009.3 |
| 20260505000024 | 21 | 155 | 0.0 | 3.2 | 0.00 | 0.00 | 0.00 | 51 | 1009.2 |
| 20260504235031 | 21 | 113 | 3.2 | 4.8 | 0.00 | 0.00 | 0.00 | 49 | 1009.4 |
| 20260504234039 | 22 | 117 | 3.2 | 4.8 | 0.00 | 0.00 | 0.00 | 46 | 1009.0 |
| 20260504233030 | 22 | 111 | 0.0 | 4.8 | 0.00 | 0.00 | 0.00 | 46 | 1008.9 |
| 20260504232024 | 23 | 112 | 1.6 | 6.4 | 0.00 | 0.00 | 0.00 | 45 | 1008.8 |
| 20260504231051 | 23 | 169 | 0.0 | 6.4 | 0.00 | 0.00 | 0.00 | 43 | 1009.0 |
| 20260504230020 | 23 | 227 | 0.0 | 4.8 | 0.00 | 0.00 | 0.00 | 42 | 1009.2 |
| 20260504225050 | 23 | 284 | 3.2 | 9.7 | 0.00 | 0.00 | 0.00 | 42 | 1009.1 |
| 20260504224021 | 24 | 211 | 4.8 | 17.7 | 0.00 | 0.00 | 0.00 | 40 | 1009.1 |
| 20260504223029 | 24 | 265 | 3.2 | 9.7 | 0.00 | 0.00 | 0.00 | 42 | 1009.2 |
| 20260504222035 | 24 | 190 | 6.4 | 14.5 | 0.00 | 0.00 | 0.00 | 40 | 1009.3 |
| 20260504221025 | 24 | 238 | 3.2 | 19.3 | 0.00 | 0.00 | 0.00 | 41 | 1009.2 |
| 20260504220020 | 24 | 203 | 6.4 | 11.3 | 0.00 | 0.00 | 0.00 | 41 | 1009.3 |
| 20260504215031 | 24 | 251 | 6.4 | 11.3 | 0.00 | 0.00 | 0.00 | 39 | 1009.3 |
| 20260504214018 | 24 | 258 | 4.8 | 14.5 | 0.00 | 0.00 | 0.00 | 41 | 1009.5 |
| 20260504213030 | 24 | 230 | 4.8 | 16.1 | 0.00 | 0.00 | 0.00 | 38 | 1009.6 |
| 20260504212023 | 25 | 230 | 8.0 | 19.3 | 0.00 | 0.00 | 0.00 | 39 | 1009.5 |
| 20260504211031 | 25 | 219 | 4.8 | 22.5 | 0.00 | 0.00 | 0.00 | 37 | 1009.5 |
| 20260504210039 | 25 | 259 | 8.0 | 16.1 | 0.00 | 0.00 | 0.00 | 36 | 1009.5 |
| 20260504205030 | 24 | 220 | 6.4 | 16.1 | 0.00 | 0.00 | 0.00 | 40 | 1009.5 |
| 20260504204037 | 23 | 194 | 4.8 | 12.9 | 0.00 | 0.00 | 0.00 | 38 | 1009.5 |
| 20260504203025 | 24 | 202 | 9.7 | 17.7 | 0.00 | 0.00 | 0.00 | 37 | 1009.4 |
| 20260504202035 | 25 | 237 | 9.7 | 19.3 | 0.00 | 0.00 | 0.00 | 35 | 1009.4 |
| 20260504201026 | 25 | 231 | 6.4 | 14.5 | 0.00 | 0.00 | 0.00 | 35 | 1009.4 |
| 20260504200035 | 25 | 205 | 4.8 | 12.9 | 0.00 | 0.00 | 0.00 | 35 | 1009.5 |
| 20260504195044 | 25 | 184 | 3.2 | 22.5 | 0.00 | 0.00 | 0.00 | 37 | 1009.6 |
| 20260504194033 | 25 | 260 | 4.8 | 17.7 | 0.00 | 0.00 | 0.00 | 34 | 1009.8 |
| 20260504193028 | 25 | 218 | 4.8 | 16.1 | 0.00 | 0.00 | 0.00 | 35 | 1009.9 |
| 20260504192035 | 25 | 258 | 6.4 | 14.5 | 0.00 | 0.00 | 0.00 | 34 | 1009.9 |
| 20260504191022 | 25 | 252 | 9.7 | 16.1 | 0.00 | 0.00 | 0.00 | 35 | 1010.2 |
| 20260504190029 | 23 | 103 | 3.2 | 22.5 | 0.00 | 0.00 | 0.00 | 38 | 1010.4 |
| 20260504185023 | 24 | 207 | 9.7 | 20.9 | 0.00 | 0.00 | 0.00 | 38 | 1010.5 |
| 20260504184030 | 23 | 197 | 6.4 | 11.3 | 0.00 | 0.00 | 0.00 | 37 | 1010.7 |
| 20260504183041 | 23 | 265 | 8.0 | 19.3 | 0.00 | 0.00 | 0.00 | 39 | 1010.7 |
| 20260504182030 | 23 | 137 | 8.0 | 14.5 | 0.00 | 0.00 | 0.00 | 38 | 1011.0 |
| 20260504181021 | 23 | 243 | 9.7 | 16.1 | 0.00 | 0.00 | 0.00 | 37 | 1011.1 |
| 20260504180030 | 23 | 166 | 6.4 | 16.1 | 0.00 | 0.00 | 0.00 | 40 | 1011.3 |
| 20260504175019 | 23 | 161 | 6.4 | 14.5 | 0.00 | 0.00 | 0.00 | 38 | 1011.4 |
| 20260504174025 | 22 | 269 | 8.0 | 14.5 | 0.00 | 0.00 | 0.00 | 38 | 1011.4 |
| 20260504173037 | 22 | 209 | 6.4 | 14.5 | 0.00 | 0.00 | 0.00 | 40 | 1011.5 |
| 20260504172023 | 22 | 210 | 4.8 | 12.9 | 0.00 | 0.00 | 0.00 | 37 | 1011.7 |
| 20260504171030 | 22 | 256 | 6.4 | 17.7 | 0.00 | 0.00 | 0.00 | 41 | 1011.9 |
| 20260504151032 | 18 | 254 | 1.6 | 8.0 | 0.00 | 0.00 | 0.00 | 49 | 1013.1 |
| 20260504141027 | 16 | 298 | 6.4 | 16.1 | 0.00 | 0.00 | 0.00 | 56 | 1013.4 |